Terminal Aerodrome Forecast
Issued by NWS

Home | Current Version | Previous Version | Text Only | Print | Product List | Glossary On
Versions: 1 2 3 4 5 6 7 8 9 10 11 12 13 14 15 16 17 18 19
000
FTUS43 KPAH 200342 AAA
TAFCGI
TAF AMD
KCGI 200342Z 2004/2024 18008KT P6SM SCT050 BKN100
     FM200500 18012G20KT P6SM VCSH SCT025 BKN060
     FM201000 18015G25KT P6SM -SHRA SCT015 OVC025
     FM201300 19017G28KT P6SM VCSH OVC015
     FM201800 19018G29KT P6SM VCSH OVC020=

USA.gov is the U.S. government's official web portal to all federal, state and local government web resources and services.